Weather History for Kaiser, MO

Change the Weather History Date:

Thursday, January 24, 2013

  Actual Average Record
Temperature  
Mean Temperature 22 °F -  
Max Temperature 30 °F 39 °F 59 °F (2006)
Min Temperature 15 °F 22 °F -5 °F (2003)
Degree Days  
Heating Degree Days 42    
Moisture  
Dew Point 7 °F    
Average Humidity 48    
Maximum Humidity 63    
Minimum Humidity 37    
Precipitation  
Precipitation 0.00 in - - ()
Sea Level Pressure  
Sea Level Pressure 30.38 in    
Wind  
Wind Speed 9 mph (East)    
Max Wind Speed 15 mph    
Max Gust Speed 21 mph    
Visibility 10 miles    
Events      
Averages and records for this station are not official NWS values.
T = Trace of Precipitation, MM = Missing Value Source: NWS Daily Summary

Daily Weather History Graph

Daily Weather History Graph

Search for Another Location

Airport:

Trip Planner

Search our weather history database for the weather conditions in past years. The results will help you decide how hot, cold, wet, or windy it might be!

Date:

Astronomy

Jan. 24, 2013 Rise Set
Actual Time 7:20 AM CST 5:24 PM CST
Civil Twilight 6:52 AM CST 5:52 PM CST
Nautical Twilight 6:20 AM CST 6:24 PM CST
Astronomical Twilight 5:49 AM CST 6:56 PM CST
Moon 3:27 PM CST (1/24) 5:17 AM CST (1/24)
Length of Visible Light 11h 00m
Length of Day
10h 03m
Waxing Gibbous, 94% of the Moon is Illuminated
Jan 24
Waxing Gibbous
Jan 26
Full
Feb 3
Last Quarter
Feb 10
New
Feb 17
First Quarter

Hourly Weather History & Observations

Time (CST) Temp. Windchill Dew Point Humidity Pressure Visibility Wind Dir Wind Speed Gust Speed Precip Events Conditions
12:15 AM 28.4 °F 22.2 °F 12.2 °F 51% 30.38 in 10.0 mi NNE 5.8 mph - N/A   Unknown
12:35 AM 28.4 °F 22.2 °F 12.2 °F 51% 30.39 in 10.0 mi North 5.8 mph - N/A   Unknown
12:55 AM 28.4 °F 22.2 °F 12.2 °F 51% 30.40 in 10.0 mi North 5.8 mph - N/A   Unknown
1:15 AM 26.6 °F 19.1 °F 12.2 °F 55% 30.40 in 10.0 mi North 6.9 mph - N/A   Unknown
1:35 AM 26.6 °F 18.2 °F 12.2 °F 55% 30.40 in 10.0 mi NNE 8.1 mph - N/A   Unknown
1:55 AM 26.6 °F 17.5 °F 12.2 °F 55% 30.41 in 10.0 mi NNE 9.2 mph - N/A   Unknown
2:15 AM 24.8 °F 16.1 °F 12.2 °F 59% 30.41 in 10.0 mi NNE 8.1 mph - N/A   Unknown
2:35 AM 24.8 °F 13.4 °F 12.2 °F 59% 30.42 in 10.0 mi NE 12.7 mph 17.3 mph N/A   Unknown
2:55 AM 24.8 °F 12.9 °F 8.6 °F 50% 30.43 in 10.0 mi NE 13.8 mph - N/A   Unknown
3:15 AM 23.0 °F 14.7 °F 10.4 °F 59% 30.44 in 10.0 mi NNE 6.9 mph - N/A   Unknown
3:35 AM 23.0 °F 15.8 °F 10.4 °F 59% 30.44 in 10.0 mi NNE 5.8 mph - N/A   Unknown
3:55 AM 21.2 °F 9.5 °F 10.4 °F 63% 30.44 in 10.0 mi NE 11.5 mph - N/A   Unknown
4:15 AM 21.2 °F 10.9 °F 8.6 °F 58% 30.45 in 10.0 mi NE 9.2 mph - N/A   Unknown
4:35 AM 21.2 °F 9.5 °F 10.4 °F 63% 30.45 in 10.0 mi NE 11.5 mph 17.3 mph N/A   Unknown
4:55 AM 19.4 °F 7.2 °F 8.6 °F 63% 30.45 in 10.0 mi NE 11.5 mph - N/A   Unknown
5:15 AM 19.4 °F 5.5 °F 6.8 °F 58% 30.45 in 10.0 mi NE 15.0 mph 19.6 mph N/A   Unknown
5:35 AM 19.4 °F 7.2 °F 5.0 °F 54% 30.46 in 10.0 mi NE 11.5 mph - N/A   Unknown
5:55 AM 17.6 °F 7.3 °F 5.0 °F 58% 30.47 in 10.0 mi NE 8.1 mph - N/A   Unknown
6:15 AM 17.6 °F 4.3 °F 3.2 °F 53% 30.47 in 10.0 mi NE 12.7 mph - N/A   Unknown
6:35 AM 17.6 °F 4.3 °F 3.2 °F 53% 30.48 in 10.0 mi NE 12.7 mph 18.4 mph N/A   Unknown
6:55 AM 15.8 °F 1.4 °F 3.2 °F 58% 30.48 in 10.0 mi ENE 13.8 mph 20.7 mph N/A   Unknown
7:15 AM 15.8 °F 2.1 °F 3.2 °F 58% 30.49 in 10.0 mi ENE 12.7 mph - N/A   Unknown
7:35 AM 15.8 °F 4.2 °F 3.2 °F 58% 30.49 in 10.0 mi ENE 9.2 mph - N/A   Unknown
7:55 AM 15.8 °F 2.7 °F 3.2 °F 58% 30.49 in 10.0 mi ENE 11.5 mph 16.1 mph N/A   Unknown
8:15 AM 15.8 °F 0.9 °F 3.2 °F 58% 30.50 in 10.0 mi NE 15.0 mph 19.6 mph N/A   Unknown
8:35 AM 15.8 °F 3.4 °F 3.2 °F 58% 30.51 in 10.0 mi NE 10.4 mph 18.4 mph N/A   Unknown
8:55 AM 15.8 °F 0.9 °F 5.0 °F 62% 30.50 in 10.0 mi East 15.0 mph - N/A   Unknown
9:15 AM 17.6 °F 3.2 °F 3.2 °F 53% 30.50 in 10.0 mi ENE 15.0 mph - N/A   Unknown
9:35 AM 17.6 °F 6.4 °F 5.0 °F 58% 30.52 in 10.0 mi East 9.2 mph - N/A   Unknown
9:55 AM 19.4 °F 7.9 °F 3.2 °F 49% 30.52 in 10.0 mi East 10.4 mph 18.4 mph N/A   Unknown
10:15 AM 19.4 °F 6.6 °F 6.8 °F 58% 30.53 in 10.0 mi East 12.7 mph 17.3 mph N/A   Unknown
10:35 AM 19.4 °F 6.0 °F 5.0 °F 54% 30.52 in 10.0 mi ESE 13.8 mph 17.3 mph N/A   Unknown
10:55 AM 21.2 °F 7.8 °F 6.8 °F 54% 30.51 in 10.0 mi East 15.0 mph - N/A   Unknown
11:15 AM 21.2 °F 8.9 °F 6.8 °F 54% 30.50 in 10.0 mi East 12.7 mph 17.3 mph N/A   Unknown
11:35 AM 23.0 °F 13.9 °F 6.8 °F 50% 30.49 in 10.0 mi East 8.1 mph - N/A   Unknown
11:55 AM 24.8 °F 13.4 °F 6.8 °F 46% 30.48 in 10.0 mi ESE 12.7 mph 18.4 mph N/A   Unknown
12:15 PM 24.8 °F 16.1 °F 6.8 °F 46% 30.45 in 10.0 mi East 8.1 mph - N/A   Unknown
12:35 PM 26.6 °F 18.2 °F 6.8 °F 43% 30.44 in 10.0 mi East 8.1 mph - N/A   Unknown
12:55 PM 26.6 °F 16.8 °F 6.8 °F 43% 30.43 in 10.0 mi ESE 10.4 mph - N/A   Unknown
1:15 PM 26.6 °F 16.8 °F 6.8 °F 43% 30.41 in 10.0 mi East 10.4 mph - N/A   Unknown
1:35 PM 28.4 °F 19.1 °F 6.8 °F 40% 30.39 in 10.0 mi SE 10.4 mph 16.1 mph N/A   Unknown
1:55 PM 28.4 °F 19.1 °F 6.8 °F 40% 30.38 in 10.0 mi ESE 10.4 mph - N/A   Unknown
2:15 PM 28.4 °F 19.7 °F 6.8 °F 40% 30.37 in 10.0 mi East 9.2 mph - N/A   Unknown
2:35 PM 28.4 °F 18.5 °F 6.8 °F 40% 30.35 in 10.0 mi East 11.5 mph - N/A   Unknown
2:55 PM 28.4 °F 18.5 °F 6.8 °F 40% 30.35 in 10.0 mi East 11.5 mph 17.3 mph N/A   Unknown
3:15 PM 28.4 °F 19.1 °F 5.0 °F 37% 30.34 in 10.0 mi East 10.4 mph - N/A   Unknown
3:35 PM 30.2 °F 23.4 °F 6.8 °F 37% 30.34 in 10.0 mi ESE 6.9 mph - N/A   Unknown
3:55 PM 30.2 °F 23.4 °F 6.8 °F 37% 30.32 in 10.0 mi East 6.9 mph 17.3 mph N/A   Unknown
4:15 PM 28.4 °F 18.5 °F 6.8 °F 40% 30.30 in 10.0 mi East 11.5 mph 16.1 mph N/A   Unknown
4:35 PM 28.4 °F 19.7 °F 6.8 °F 40% 30.31 in 10.0 mi East 9.2 mph - N/A   Unknown
4:55 PM 30.2 °F 21.9 °F 6.8 °F 37% 30.29 in 10.0 mi ESE 9.2 mph - N/A   Unknown
5:15 PM 28.4 °F 18.5 °F 6.8 °F 40% 30.30 in 10.0 mi East 11.5 mph - N/A   Unknown
5:35 PM 30.2 °F 23.4 °F 6.8 °F 37% 30.29 in 10.0 mi East 6.9 mph - N/A   Unknown
5:55 PM 30.2 °F 21.9 °F 6.8 °F 37% 30.29 in 10.0 mi East 9.2 mph - N/A   Unknown
6:15 PM 30.2 °F 22.6 °F 6.8 °F 37% 30.29 in 10.0 mi ESE 8.1 mph - N/A   Unknown
6:35 PM 30.2 °F 22.6 °F 6.8 °F 37% 30.28 in 10.0 mi East 8.1 mph - N/A   Unknown
6:55 PM 30.2 °F 21.3 °F 6.8 °F 37% 30.28 in 10.0 mi ESE 10.4 mph - N/A   Unknown
7:15 PM 28.4 °F 19.1 °F 8.6 °F 43% 30.26 in 10.0 mi ESE 10.4 mph 16.1 mph N/A   Unknown
7:35 PM 28.4 °F 21.2 °F 8.6 °F 43% 30.25 in 10.0 mi ESE 6.9 mph - N/A   Unknown
7:55 PM 28.4 °F 19.7 °F 8.6 °F 43% 30.25 in 10.0 mi East 9.2 mph - N/A   Unknown
8:15 PM 28.4 °F 21.2 °F 8.6 °F 43% 30.24 in 10.0 mi East 6.9 mph - N/A   Unknown
8:35 PM 30.2 °F 24.3 °F 8.6 °F 40% 30.25 in 10.0 mi ESE 5.8 mph - N/A   Unknown
8:55 PM 30.2 °F 22.6 °F 8.6 °F 40% 30.25 in 10.0 mi SSE 8.1 mph - N/A   Unknown
9:15 PM 30.2 °F 23.4 °F 8.6 °F 40% 30.24 in 10.0 mi SSE 6.9 mph - N/A   Unknown
9:35 PM 30.2 °F 21.9 °F 8.6 °F 40% 30.23 in 10.0 mi SE 9.2 mph - N/A   Unknown
9:55 PM 30.2 °F 22.6 °F 8.6 °F 40% 30.23 in 10.0 mi SE 8.1 mph - N/A   Unknown
10:15 PM 30.2 °F 25.4 °F 8.6 °F 40% 30.21 in 10.0 mi SE 4.6 mph - N/A   Unknown
10:35 PM 30.2 °F 24.3 °F 8.6 °F 40% 30.22 in 10.0 mi SE 5.8 mph - N/A   Unknown
10:55 PM 30.2 °F 25.4 °F 8.6 °F 40% 30.22 in 10.0 mi SE 4.6 mph - N/A   Unknown
11:15 PM 30.2 °F 26.7 °F 8.6 °F 40% 30.22 in 10.0 mi ESE 3.5 mph - N/A   Unknown
11:35 PM 30.2 °F 22.6 °F 8.6 °F 40% 30.18 in 10.0 mi SE 8.1 mph - N/A   Unknown
11:55 PM 30.2 °F 24.3 °F 8.6 °F 40% 30.20 in 10.0 mi South 5.8 mph - N/A   Unknown